| time (UTC) | temp F | wind direction | speed MPH | gust MPH | rain 1hr in | rain 24hr in | rain mn in | humidity % | barometer mb |
| 20260905211630 | 77 | 355 | 3.0 | 9.0 | 0.00 | 0.00 | 0.00 | 63 | 1010.6 |
| 20260905211130 | 78 | 19 | 4.0 | 11.0 | 0.00 | 0.00 | 0.00 | 62 | 1010.6 |
| 20260905210633 | 79 | 345 | 4.0 | 11.0 | 0.00 | 0.00 | 0.00 | 62 | 1010.6 |
| 20260905210130 | 79 | 44 | 3.0 | 11.0 | 0.00 | 0.00 | 0.00 | 60 | 1010.5 |
| 20260905205846 | 79 | 44 | 3.0 | 8.0 | 0.00 | 0.00 | 0.00 | 60 | 1010.5 |
| 20260905205128 | 78 | 14 | 4.0 | 11.0 | 0.00 | 0.00 | 0.00 | 62 | 1010.5 |
| 20260905204627 | 77 | 344 | 4.0 | 11.0 | 0.00 | 0.00 | 0.00 | 61 | 1010.5 |
| 20260905204128 | 77 | 326 | 3.0 | 9.0 | 0.00 | 0.00 | 0.00 | 62 | 1010.5 |
| 20260905204120 | 77 | 28 | 5.0 | 11.0 | 0.00 | 0.00 | 0.00 | 63 | 1010.5 |
| 20260905203354 | 78 | 5 | 5.0 | 11.0 | 0.00 | 0.00 | 0.00 | 60 | 1010.4 |
| 20260905202630 | 79 | 20 | 4.0 | 10.0 | 0.00 | 0.00 | 0.00 | 58 | 1010.4 |
| 20260905202127 | 80 | 9 | 4.0 | 11.0 | 0.00 | 0.00 | 0.00 | 56 | 1010.4 |
| 20260905201643 | 81 | 5 | 5.0 | 11.0 | 0.00 | 0.00 | 0.00 | 57 | 1010.4 |
| 20260905201128 | 81 | 315 | 3.0 | 9.0 | 0.00 | 0.00 | 0.00 | 57 | 1010.5 |
| 20260905200628 | 81 | 16 | 2.0 | 9.0 | 0.00 | 0.00 | 0.00 | 57 | 1010.5 |
| 20260905200127 | 80 | 0 | 2.0 | 8.0 | 0.00 | 0.00 | 0.00 | 60 | 1010.5 |
| 20260905195627 | 80 | 0 | 2.0 | 8.0 | 0.00 | 0.00 | 0.00 | 60 | 1010.6 |
| 20260905195127 | 80 | 300 | 2.0 | 7.0 | 0.00 | 0.00 | 0.00 | 59 | 1010.6 |
| 20260905194846 | 79 | 355 | 3.0 | 8.0 | 0.00 | 0.00 | 0.00 | 62 | 1010.7 |
| 20260905194128 | 78 | 346 | 3.0 | 8.0 | 0.00 | 0.00 | 0.00 | 62 | 1010.7 |
| 20260905193627 | 78 | 0 | 3.0 | 6.0 | 0.00 | 0.00 | 0.00 | 63 | 1010.7 |
| 20260905193337 | 79 | 13 | 4.0 | 9.0 | 0.00 | 0.00 | 0.00 | 61 | 1010.8 |
| 20260905192611 | 80 | 351 | 3.0 | 9.0 | 0.00 | 0.00 | 0.00 | 58 | 1010.8 |
| 20260905192326 | 81 | 331 | 3.0 | 8.0 | 0.00 | 0.00 | 0.00 | 59 | 1010.8 |
| 20260905191611 | 81 | 340 | 3.0 | 8.0 | 0.00 | 0.00 | 0.00 | 59 | 1010.9 |
| 20260905191110 | 80 | 304 | 3.0 | 8.0 | 0.00 | 0.00 | 0.00 | 59 | 1010.9 |
| 20260905190607 | 80 | 259 | 2.0 | 8.0 | 0.00 | 0.00 | 0.00 | 61 | 1010.9 |
| 20260905190122 | 80 | 263 | 2.0 | 6.0 | 0.00 | 0.00 | 0.00 | 61 | 1011.0 |
| 20260905185607 | 80 | 296 | 3.0 | 8.0 | 0.00 | 0.00 | 0.00 | 61 | 1011.0 |
| 20260905185105 | 80 | 345 | 2.0 | 8.0 | 0.00 | 0.00 | 0.00 | 62 | 1011.0 |
| 20260905184604 | 79 | 309 | 2.0 | 6.0 | 0.00 | 0.00 | 0.00 | 64 | 1011.1 |
| 20260905184325 | 79 | 323 | 2.0 | 6.0 | 0.00 | 0.00 | 0.00 | 64 | 1011.0 |
| 20260905183606 | 78 | 282 | 2.0 | 6.0 | 0.00 | 0.00 | 0.00 | 64 | 1011.1 |
| 20260905183105 | 78 | 298 | 2.0 | 6.0 | 0.00 | 0.00 | 0.00 | 65 | 1011.2 |
| 20260905182606 | 78 | 13 | 3.0 | 6.0 | 0.00 | 0.00 | 0.00 | 65 | 1011.2 |
| 20260905182104 | 78 | 346 | 3.0 | 10.0 | 0.00 | 0.00 | 0.00 | 65 | 1011.1 |
| 20260905181605 | 79 | 42 | 4.0 | 10.0 | 0.00 | 0.00 | 0.00 | 66 | 1011.1 |
| 20260905181111 | 80 | 11 | 4.0 | 9.0 | 0.00 | 0.00 | 0.00 | 63 | 1011.1 |
| 20260905180612 | 79 | 345 | 4.0 | 10.0 | 0.00 | 0.00 | 0.00 | 61 | 1011.2 |
| 20260905180112 | 80 | 340 | 4.0 | 10.0 | 0.00 | 0.00 | 0.00 | 62 | 1011.3 |
| 20260905175608 | 79 | 334 | 4.0 | 8.0 | 0.00 | 0.00 | 0.00 | 63 | 1011.3 |
| 20260905175105 | 78 | 355 | 4.0 | 11.0 | 0.00 | 0.00 | 0.00 | 62 | 1011.2 |
| 20260905174556 | 79 | 346 | 3.0 | 11.0 | 0.00 | 0.00 | 0.00 | 61 | 1011.3 |
| 20260905174314 | 79 | 330 | 4.0 | 10.0 | 0.00 | 0.00 | 0.00 | 62 | 1011.3 |
| 20260905173541 | 79 | 355 | 4.0 | 10.0 | 0.00 | 0.00 | 0.00 | 61 | 1011.4 |
| 20260905173046 | 79 | 15 | 4.0 | 13.0 | 0.00 | 0.00 | 0.00 | 61 | 1011.4 |
| 20260905172543 | 79 | 42 | 4.0 | 13.0 | 0.00 | 0.00 | 0.00 | 62 | 1011.4 |
| 20260905172039 | 79 | 59 | 3.0 | 9.0 | 0.00 | 0.00 | 0.00 | 62 | 1011.4 |
| 20260905171541 | 78 | 5 | 3.0 | 6.0 | 0.00 | 0.00 | 0.00 | 66 | 1011.5 |
| 20260905171040 | 78 | 342 | 3.0 | 9.0 | 0.00 | 0.00 | 0.00 | 64 | 1011.6 |
| 20260905170541 | 78 | 355 | 3.0 | 9.0 | 0.00 | 0.00 | 0.00 | 65 | 1011.7 |
| 20260905170040 | 79 | 355 | 3.0 | 9.0 | 0.00 | 0.00 | 0.00 | 65 | 1011.7 |
| 20260905165804 | 79 | 273 | 2.0 | 7.0 | 0.00 | 0.00 | 0.00 | 64 | 1011.7 |
| 20260905165039 | 78 | 270 | 3.0 | 9.0 | 0.00 | 0.00 | 0.00 | 63 | 1011.8 |
| 20260905164540 | 78 | 263 | 4.0 | 9.0 | 0.00 | 0.00 | 0.00 | 65 | 1011.8 |
| 20260905164038 | 78 | 315 | 4.0 | 11.0 | 0.00 | 0.00 | 0.00 | 65 | 1011.8 |
| 20260905163538 | 77 | 337 | 4.0 | 11.0 | 0.00 | 0.00 | 0.00 | 67 | 1011.8 |
| 20260905163039 | 77 | 329 | 2.0 | 6.0 | 0.00 | 0.00 | 0.00 | 65 | 1011.8 |
| 20260905162538 | 77 | 317 | 4.0 | 10.0 | 0.00 | 0.00 | 0.00 | 67 | 1011.9 |
| 20260905162039 | 77 | 0 | 4.0 | 10.0 | 0.00 | 0.00 | 0.00 | 64 | 1012.0 |
| 20260905161539 | 78 | 5 | 3.0 | 10.0 | 0.00 | 0.00 | 0.00 | 64 | 1012.1 |
| 20260905161313 | 77 | 350 | 3.0 | 10.0 | 0.00 | 0.00 | 0.00 | 65 | 1012.2 |
| 20260905160539 | 78 | 9 | 2.0 | 8.0 | 0.00 | 0.00 | 0.00 | 65 | 1012.3 |
| 20260905160034 | 78 | 17 | 3.0 | 8.0 | 0.00 | 0.00 | 0.00 | 69 | 1012.2 |
| 20260905155532 | 77 | 17 | 4.0 | 10.0 | 0.00 | 0.00 | 0.00 | 66 | 1012.3 |
| 20260905155030 | 78 | 21 | 4.0 | 10.0 | 0.00 | 0.00 | 0.00 | 69 | 1012.3 |
| 20260905154528 | 77 | 13 | 3.0 | 9.0 | 0.00 | 0.00 | 0.00 | 69 | 1012.2 |
| 20260905154028 | 77 | 5 | 3.0 | 9.0 | 0.00 | 0.00 | 0.00 | 71 | 1012.2 |
| 20260905153526 | 76 | 23 | 5.0 | 12.0 | 0.00 | 0.00 | 0.00 | 69 | 1012.2 |
| 20260905153031 | 76 | 355 | 5.0 | 12.0 | 0.00 | 0.00 | 0.00 | 69 | 1012.3 |
| 20260905152752 | 76 | 342 | 5.0 | 11.0 | 0.00 | 0.00 | 0.00 | 69 | 1012.3 |
| 20260905152024 | 77 | 315 | 4.0 | 11.0 | 0.00 | 0.00 | 0.00 | 71 | 1012.3 |
| 20260905151525 | 76 | 310 | 4.0 | 11.0 | 0.00 | 0.00 | 0.00 | 70 | 1012.3 |
| 20260905151251 | 76 | 76 | 4.0 | 10.0 | 0.00 | 0.00 | 0.00 | 72 | 1012.3 |
| 20260905150526 | 76 | 338 | 6.0 | 13.0 | 0.00 | 0.00 | 0.00 | 72 | 1012.2 |
| 20260905150027 | 76 | 326 | 6.0 | 14.0 | 0.00 | 0.00 | 0.00 | 72 | 1012.1 |
| 20260905145525 | 76 | 313 | 6.0 | 14.0 | 0.00 | 0.00 | 0.00 | 71 | 1012.1 |
| 20260905145023 | 76 | 332 | 5.0 | 12.0 | 0.00 | 0.00 | 0.00 | 75 | 1012.0 |
| 20260905144523 | 76 | 237 | 3.0 | 12.0 | 0.00 | 0.00 | 0.00 | 72 | 1012.0 |
| 20260905144021 | 75 | 11 | 2.0 | 7.0 | 0.00 | 0.00 | 0.00 | 75 | 1012.0 |
| 20260905143522 | 75 | 11 | 3.0 | 8.0 | 0.00 | 0.00 | 0.00 | 71 | 1012.0 |
| 20260905143021 | 75 | 12 | 3.0 | 8.0 | 0.00 | 0.00 | 0.00 | 73 | 1011.9 |
| 20260905142523 | 74 | 342 | 3.0 | 6.0 | 0.00 | 0.00 | 0.00 | 75 | 1011.9 |
| 20260905142020 | 74 | 331 | 2.0 | 6.0 | 0.00 | 0.00 | 0.00 | 73 | 1012.0 |
| 20260905141521 | 74 | 331 | 3.0 | 8.0 | 0.00 | 0.00 | 0.00 | 76 | 1012.1 |
| 20260905141024 | 73 | 264 | 3.0 | 8.0 | 0.00 | 0.00 | 0.00 | 75 | 1012.1 |
| 20260905140522 | 74 | 9 | 1.0 | 8.0 | 0.00 | 0.00 | 0.00 | 77 | 1012.1 |
| 20260905140020 | 73 | 296 | 1.0 | 5.0 | 0.00 | 0.00 | 0.00 | 78 | 1012.2 |
| 20260905135523 | 73 | 264 | 0.0 | 5.0 | 0.00 | 0.00 | 0.00 | 78 | 1012.2 |
| 20260905135022 | 73 | 344 | 0.0 | 3.0 | 0.00 | 0.00 | 0.00 | 79 | 1012.1 |
| 20260905134735 | 73 | 344 | 0.0 | 6.0 | 0.00 | 0.00 | 0.00 | 79 | 1012.1 |
| 20260905134620 | 73 | 344 | 0.0 | 3.0 | 0.00 | 0.00 | 0.00 | 80 | 1012.1 |
| 20260905133520 | 73 | 344 | 1.0 | 6.0 | 0.00 | 0.00 | 0.00 | 79 | 1012.1 |
| 20260905133021 | 72 | 348 | 2.0 | 8.0 | 0.00 | 0.00 | 0.00 | 78 | 1012.0 |
| 20260905132520 | 73 | 335 | 2.0 | 8.0 | 0.00 | 0.00 | 0.00 | 77 | 1012.0 |
| 20260905132249 | 73 | 329 | 2.0 | 5.0 | 0.00 | 0.00 | 0.00 | 79 | 1011.9 |
| 20260905131524 | 73 | 333 | 1.0 | 5.0 | 0.00 | 0.00 | 0.00 | 80 | 1011.9 |
| 20260905131022 | 73 | 333 | 1.0 | 5.0 | 0.00 | 0.00 | 0.00 | 78 | 1011.8 |
| 20260905130522 | 73 | 341 | 1.0 | 4.0 | 0.00 | 0.00 | 0.00 | 79 | 1011.7 |
| 20260905130020 | 73 | 5 | 1.0 | 3.0 | 0.00 | 0.00 | 0.00 | 81 | 1011.8 |
| 20260905125521 | 72 | 324 | 1.0 | 3.0 | 0.00 | 0.00 | 0.00 | 80 | 1011.7 |
| 20260905125021 | 72 | 324 | 2.0 | 4.0 | 0.00 | 0.00 | 0.00 | 82 | 1011.7 |
| 20260905124523 | 72 | 328 | 2.0 | 4.0 | 0.00 | 0.00 | 0.00 | 81 | 1011.8 |
| 20260905124021 | 72 | 9 | 1.0 | 7.0 | 0.00 | 0.00 | 0.00 | 82 | 1011.8 |
| 20260905123520 | 72 | 9 | 1.0 | 7.0 | 0.00 | 0.00 | 0.00 | 82 | 1011.7 |
| 20260905123021 | 71 | 323 | 1.0 | 3.0 | 0.00 | 0.00 | 0.00 | 84 | 1011.8 |
| 20260905122520 | 71 | 323 | 1.0 | 4.0 | 0.00 | 0.00 | 0.00 | 85 | 1011.9 |
| 20260905122253 | 71 | 323 | 0.0 | 4.0 | 0.00 | 0.00 | 0.00 | 85 | 1012.0 |
| 20260905121526 | 71 | 316 | 0.0 | 2.0 | 0.00 | 0.00 | 0.00 | 87 | 1011.9 |
| 20260905121021 | 71 | 316 | 0.0 | 2.0 | 0.00 | 0.00 | 0.00 | 88 | 1011.9 |
| 20260905120745 | 71 | 316 | 0.0 | 2.0 | 0.00 | 0.00 | 0.00 | 88 | 1011.9 |
| 20260905120023 | 71 | 316 | 0.0 | 1.0 | 0.00 | 0.00 | 0.00 | 89 | 1011.8 |
| 20260905115518 | 71 | 316 | 0.0 | 1.0 | 0.00 | 0.00 | 0.00 | 89 | 1011.8 |
| 20260905115023 | 71 | 316 | 0.0 | 1.0 | 0.00 | 0.00 | 0.00 | 89 | 1011.8 |
| 20260905114738 | 71 | 316 | 0.0 | 0.0 | 0.00 | 0.00 | 0.00 | 89 | 1011.7 |
| 20260905114013 | 71 | 316 | 0.0 | 0.0 | 0.00 | 0.00 | 0.00 | 89 | 1011.6 |
| 20260905113510 | 71 | 316 | 0.0 | 0.0 | 0.00 | 0.00 | 0.00 | 90 | 1011.7 |
| 20260905113008 | 70 | 65 | 0.0 | 0.0 | 0.00 | 0.00 | 0.00 | 90 | 1011.7 |
| 20260905112752 | 70 | 66 | 0.0 | 0.0 | 0.00 | 0.00 | 0.00 | 90 | 1011.6 |
| 20260905112011 | 70 | 66 | 0.0 | 0.0 | 0.00 | 0.00 | 0.00 | 90 | 1011.5 |
| 20260905111509 | 70 | 355 | 0.0 | 0.0 | 0.00 | 0.00 | 0.00 | 90 | 1011.4 |
| 20260905111235 | 70 | 355 | 0.0 | 0.0 | 0.00 | 0.00 | 0.00 | 90 | 1011.4 |
| 20260905110509 | 70 | 355 | 0.0 | 0.0 | 0.00 | 0.00 | 0.00 | 90 | 1011.4 |
| 20260905110234 | 70 | 355 | 0.0 | 0.0 | 0.00 | 0.00 | 0.00 | 90 | 1011.3 |
| 20260905105508 | 70 | 355 | 0.0 | 0.0 | 0.00 | 0.00 | 0.00 | 90 | 1011.5 |
| 20260905105008 | 70 | 355 | 0.0 | 0.0 | 0.00 | 0.00 | 0.00 | 90 | 1011.4 |
| 20260905104727 | 70 | 355 | 0.0 | 0.0 | 0.00 | 0.00 | 0.00 | 90 | 1011.3 |
| 20260905104006 | 70 | 355 | 0.0 | 0.0 | 0.00 | 0.00 | 0.00 | 90 | 1011.2 |
| 20260905103505 | 70 | 355 | 0.0 | 0.0 | 0.00 | 0.00 | 0.00 | 90 | 1011.1 |
| 20260905103004 | 70 | 355 | 0.0 | 0.0 | 0.00 | 0.00 | 0.00 | 89 | 1011.0 |
| 20260905102504 | 70 | 355 | 0.0 | 0.0 | 0.00 | 0.00 | 0.00 | 89 | 1010.9 |
| 20260905102007 | 70 | 355 | 0.0 | 0.0 | 0.00 | 0.00 | 0.00 | 88 | 1010.9 |
| 20260905101503 | 70 | 355 | 0.0 | 0.0 | 0.00 | 0.00 | 0.00 | 88 | 1010.7 |
| 20260905100957 | 71 | 355 | 0.0 | 0.0 | 0.00 | 0.00 | 0.00 | 89 | 1010.6 |
| 20260905100506 | 71 | 355 | 0.0 | 0.0 | 0.00 | 0.00 | 0.00 | 89 | 1010.6 |
| 20260905095951 | 71 | 355 | 0.0 | 0.0 | 0.00 | 0.00 | 0.00 | 89 | 1010.6 |
| 20260905095709 | 71 | 355 | 0.0 | 0.0 | 0.00 | 0.00 | 0.00 | 89 | 1010.7 |
| 20260905094951 | 71 | 355 | 0.0 | 3.0 | 0.00 | 0.00 | 0.00 | 90 | 1010.7 |
| 20260905094707 | 71 | 355 | 0.0 | 3.0 | 0.00 | 0.00 | 0.00 | 91 | 1010.6 |
| 20260905093950 | 71 | 350 | 0.0 | 2.0 | 0.00 | 0.00 | 0.00 | 92 | 1010.6 |
| 20260905093449 | 71 | 350 | 1.0 | 3.0 | 0.00 | 0.00 | 0.00 | 92 | 1010.6 |
| 20260905093211 | 71 | 350 | 0.0 | 3.0 | 0.00 | 0.00 | 0.00 | 92 | 1010.6 |
| 20260905092443 | 71 | 349 | 0.0 | 0.0 | 0.00 | 0.00 | 0.00 | 93 | 1010.6 |
| 20260905091943 | 71 | 349 | 0.0 | 0.0 | 0.00 | 0.00 | 0.00 | 93 | 1010.6 |
| 20260905091700 | 71 | 349 | 0.0 | 0.0 | 0.00 | 0.00 | 0.00 | 93 | 1010.6 |
| 20260905090946 | 71 | 349 | 0.0 | 0.0 | 0.00 | 0.00 | 0.00 | 93 | 1010.6 |
| 20260905090441 | 71 | 349 | 0.0 | 0.0 | 0.00 | 0.00 | 0.00 | 93 | 1010.7 |
| 20260905085939 | 71 | 349 | 0.0 | 0.0 | 0.00 | 0.00 | 0.00 | 93 | 1010.7 |
| 20260905085437 | 71 | 349 | 0.0 | 0.0 | 0.00 | 0.00 | 0.00 | 93 | 1010.8 |
| 20260905084936 | 71 | 349 | 0.0 | 0.0 | 0.00 | 0.00 | 0.00 | 93 | 1010.7 |
| 20260905084437 | 71 | 349 | 0.0 | 0.0 | 0.00 | 0.00 | 0.00 | 93 | 1010.7 |
| 20260905083937 | 71 | 349 | 0.0 | 0.0 | 0.00 | 0.00 | 0.00 | 93 | 1010.7 |
| 20260905083442 | 71 | 349 | 0.0 | 0.0 | 0.00 | 0.00 | 0.00 | 93 | 1010.6 |
| 20260905083419 | 71 | 349 | 0.0 | 0.0 | 0.00 | 0.00 | 0.00 | 93 | 1010.5 |
| 20260905082656 | 71 | 349 | 0.0 | 0.0 | 0.00 | 0.00 | 0.00 | 93 | 1010.6 |
| 20260905081934 | 71 | 349 | 0.0 | 0.0 | 0.00 | 0.00 | 0.00 | 93 | 1010.5 |
| 20260905081656 | 71 | 349 | 0.0 | 0.0 | 0.00 | 0.00 | 0.00 | 93 | 1010.5 |
| 20260905080930 | 71 | 349 | 0.0 | 0.0 | 0.00 | 0.00 | 0.00 | 93 | 1010.6 |
| 20260905080433 | 71 | 349 | 0.0 | 0.0 | 0.00 | 0.00 | 0.00 | 93 | 1010.5 |
| 20260905080424 | 71 | 349 | 0.0 | 0.0 | 0.00 | 0.00 | 0.00 | 93 | 1010.6 |
| 20260905075429 | 71 | 349 | 0.0 | 0.0 | 0.00 | 0.00 | 0.00 | 93 | 1010.6 |
| 20260905074926 | 71 | 349 | 0.0 | 0.0 | 0.00 | 0.00 | 0.00 | 93 | 1010.6 |
| 20260905074907 | 70 | 349 | 0.0 | 0.0 | 0.00 | 0.00 | 0.00 | 93 | 1010.6 |
| 20260905073926 | 70 | 349 | 0.0 | 0.0 | 0.00 | 0.00 | 0.00 | 93 | 1010.6 |
| 20260905073424 | 71 | 349 | 0.0 | 0.0 | 0.00 | 0.00 | 0.00 | 93 | 1010.6 |
| 20260905073150 | 71 | 349 | 0.0 | 0.0 | 0.00 | 0.00 | 0.00 | 93 | 1010.5 |
| 20260905072423 | 71 | 349 | 0.0 | 0.0 | 0.00 | 0.00 | 0.00 | 93 | 1010.5 |
| 20260905071924 | 71 | 349 | 0.0 | 0.0 | 0.00 | 0.00 | 0.00 | 93 | 1010.6 |
| 20260905071421 | 71 | 349 | 0.0 | 0.0 | 0.00 | 0.00 | 0.00 | 93 | 1010.7 |
| 20260905070924 | 71 | 349 | 0.0 | 0.0 | 0.00 | 0.00 | 0.00 | 93 | 1010.7 |
| 20260905070426 | 71 | 349 | 0.0 | 0.0 | 0.00 | 0.00 | 0.00 | 93 | 1010.8 |
| 20260905070140 | 71 | 349 | 0.0 | 0.0 | 0.00 | 0.00 | 0.00 | 93 | 1010.8 |
| 20260905065421 | 71 | 349 | 0.0 | 0.0 | 0.00 | 0.00 | 0.00 | 93 | 1010.8 |
| 20260905064917 | 72 | 349 | 0.0 | 0.0 | 0.00 | 0.00 | 0.00 | 93 | 1010.7 |
| 20260905064416 | 72 | 349 | 0.0 | 0.0 | 0.00 | 0.00 | 0.00 | 93 | 1010.7 |
| 20260905063915 | 72 | 349 | 0.0 | 0.0 | 0.00 | 0.00 | 0.00 | 93 | 1010.8 |
| 20260905063650 | 72 | 349 | 0.0 | 0.0 | 0.00 | 0.00 | 0.00 | 93 | 1010.8 |
| 20260905062916 | 71 | 349 | 0.0 | 0.0 | 0.00 | 0.00 | 0.00 | 93 | 1010.8 |
| 20260905062414 | 72 | 349 | 0.0 | 0.0 | 0.00 | 0.00 | 0.00 | 93 | 1010.8 |
| 20260905061914 | 72 | 349 | 0.0 | 0.0 | 0.00 | 0.00 | 0.00 | 93 | 1010.7 |
| 20260905061414 | 72 | 349 | 0.0 | 0.0 | 0.00 | 0.00 | 0.00 | 93 | 1010.8 |
| 20260905060917 | 72 | 349 | 0.0 | 0.0 | 0.00 | 0.00 | 0.00 | 93 | 1010.9 |
| 20260905060413 | 72 | 349 | 0.0 | 0.0 | 0.00 | 0.00 | 0.00 | 93 | 1010.9 |
| 20260905055916 | 72 | 349 | 0.0 | 0.0 | 0.00 | 0.00 | 0.00 | 93 | 1011.0 |
| 20260905055416 | 72 | 349 | 0.0 | 0.0 | 0.00 | 0.00 | 0.00 | 93 | 1011.1 |
| 20260905054917 | 72 | 349 | 0.0 | 0.0 | 0.00 | 0.00 | 0.00 | 93 | 1011.1 |
| 20260905054416 | 72 | 349 | 0.0 | 0.0 | 0.00 | 0.00 | 0.00 | 93 | 1011.2 |
| 20260905054139 | 72 | 349 | 0.0 | 0.0 | 0.00 | 0.00 | 0.00 | 93 | 1011.3 |
| 20260905053637 | 72 | 349 | 0.0 | 0.0 | 0.00 | 0.00 | 0.00 | 93 | 1011.3 |
| 20260905052914 | 72 | 349 | 0.0 | 0.0 | 0.00 | 0.00 | 0.00 | 93 | 1011.3 |
| 20260905052412 | 72 | 349 | 0.0 | 0.0 | 0.00 | 0.00 | 0.00 | 92 | 1011.2 |
| 20260905052148 | 72 | 349 | 0.0 | 0.0 | 0.00 | 0.00 | 0.00 | 92 | 1011.2 |
| 20260905051412 | 72 | 349 | 0.0 | 0.0 | 0.00 | 0.00 | 0.00 | 92 | 1011.2 |
| 20260905050912 | 72 | 349 | 0.0 | 0.0 | 0.00 | 0.00 | 0.00 | 92 | 1011.2 |
| 20260905050411 | 72 | 349 | 0.0 | 0.0 | 0.00 | 0.00 | 0.00 | 92 | 1011.2 |
| 20260905045910 | 73 | 349 | 0.0 | 0.0 | 0.00 | 0.00 | 0.00 | 92 | 1011.2 |
| 20260905045411 | 73 | 349 | 0.0 | 0.0 | 0.00 | 0.00 | 0.00 | 92 | 1011.2 |
| 20260905044912 | 73 | 349 | 0.0 | 0.0 | 0.00 | 0.00 | 0.00 | 92 | 1011.3 |
| 20260905044412 | 73 | 349 | 0.0 | 0.0 | 0.00 | 0.00 | 0.00 | 92 | 1011.3 |
| 20260905043913 | 73 | 349 | 0.0 | 0.0 | 0.00 | 0.00 | 0.00 | 92 | 1011.5 |
| 20260905043636 | 73 | 349 | 0.0 | 0.0 | 0.00 | 0.00 | 0.00 | 91 | 1011.5 |
| 20260905042910 | 74 | 349 | 0.0 | 0.0 | 0.00 | 0.00 | 0.00 | 91 | 1011.5 |
| 20260905042409 | 74 | 349 | 0.0 | 0.0 | 0.00 | 0.00 | 0.00 | 92 | 1011.6 |
| 20260905041911 | 74 | 349 | 0.0 | 1.0 | 0.00 | 0.00 | 0.00 | 92 | 1011.6 |
| 20260905041408 | 74 | 349 | 0.0 | 4.0 | 0.00 | 0.00 | 0.00 | 92 | 1011.6 |
| 20260905041130 | 74 | 349 | 0.0 | 4.0 | 0.00 | 0.00 | 0.00 | 92 | 1011.7 |
| 20260905040405 | 74 | 330 | 0.0 | 0.0 | 0.00 | 0.00 | 0.00 | 92 | 1011.6 |
| 20260905035906 | 74 | 330 | 0.0 | 0.0 | 0.00 | 0.00 | 0.00 | 92 | 1011.7 |
| 20260905035626 | 74 | 330 | 0.0 | 0.0 | 0.00 | 0.00 | 0.00 | 92 | 1011.6 |
| 20260905034858 | 74 | 330 | 0.0 | 0.0 | 0.00 | 0.00 | 0.00 | 92 | 1011.5 |
| 20260905034351 | 74 | 330 | 0.0 | 0.0 | 0.00 | 0.00 | 0.00 | 92 | 1011.5 |
| 20260905034112 | 74 | 330 | 0.0 | 0.0 | 0.00 | 0.00 | 0.00 | 92 | 1011.4 |
| 20260905033348 | 74 | 330 | 0.0 | 0.0 | 0.00 | 0.00 | 0.00 | 92 | 1011.6 |
| 20260905032847 | 74 | 330 | 0.0 | 0.0 | 0.00 | 0.00 | 0.00 | 92 | 1011.6 |
| 20260905032347 | 74 | 330 | 0.0 | 0.0 | 0.00 | 0.00 | 0.00 | 92 | 1011.6 |
| 20260905031845 | 74 | 330 | 0.0 | 0.0 | 0.00 | 0.00 | 0.00 | 92 | 1011.5 |
| 20260905031345 | 74 | 330 | 0.0 | 0.0 | 0.00 | 0.00 | 0.00 | 92 | 1011.5 |
| 20260905030844 | 74 | 330 | 0.0 | 0.0 | 0.00 | 0.02 | 0.00 | 92 | 1011.5 |
| 20260905030608 | 74 | 330 | 0.0 | 0.0 | 0.00 | 0.05 | 0.00 | 92 | 1011.5 |
| 20260905025846 | 74 | 330 | 0.0 | 0.0 | 0.00 | 0.05 | 0.00 | 92 | 1011.4 |
| 20260905025347 | 74 | 330 | 0.0 | 0.0 | 0.00 | 0.05 | 0.00 | 92 | 1011.5 |
| 20260905024841 | 74 | 330 | 0.0 | 0.0 | 0.00 | 0.05 | 0.00 | 92 | 1011.5 |
| 20260905024343 | 74 | 330 | 0.0 | 0.0 | 0.00 | 0.05 | 0.00 | 92 | 1011.4 |
| 20260905023847 | 74 | 330 | 0.0 | 0.0 | 0.00 | 0.05 | 0.00 | 92 | 1011.5 |
| 20260905023345 | 74 | 330 | 0.0 | 0.0 | 0.00 | 0.05 | 0.00 | 92 | 1011.3 |
| 20260905022848 | 74 | 330 | 0.0 | 0.0 | 0.00 | 0.05 | 0.00 | 92 | 1011.4 |
| 20260905022344 | 74 | 330 | 0.0 | 0.0 | 0.00 | 0.05 | 0.00 | 91 | 1011.5 |
| 20260905021843 | 74 | 330 | 0.0 | 0.0 | 0.00 | 0.05 | 0.00 | 91 | 1011.4 |
| 20260905021341 | 74 | 330 | 0.0 | 1.0 | 0.00 | 0.05 | 0.00 | 91 | 1011.4 |
| 20260905021038 | 75 | 330 | 0.0 | 1.0 | 0.00 | 0.05 | 0.00 | 91 | 1011.2 |
| 20260905020936 | 75 | 330 | 0.0 | 1.0 | 0.00 | 0.05 | 0.00 | 91 | 1011.3 |
| 20260905015840 | 75 | 330 | 0.0 | 0.0 | 0.00 | 0.05 | 0.00 | 91 | 1011.3 |
| 20260905015606 | 75 | 330 | 0.0 | 0.0 | 0.00 | 0.05 | 0.00 | 91 | 1011.3 |
| 20260905014837 | 75 | 330 | 0.0 | 0.0 | 0.00 | 0.05 | 0.00 | 91 | 1011.2 |
| 20260905014337 | 75 | 330 | 0.0 | 0.0 | 0.00 | 0.05 | 0.00 | 91 | 1011.2 |
| 20260905013836 | 75 | 330 | 0.0 | 0.0 | 0.00 | 0.05 | 0.00 | 90 | 1011.4 |
| 20260905013336 | 75 | 330 | 0.0 | 0.0 | 0.00 | 0.05 | 0.00 | 90 | 1011.3 |
| 20260905013107 | 75 | 330 | 0.0 | 0.0 | 0.00 | 0.05 | 0.00 | 90 | 1011.3 |
| 20260905012335 | 75 | 330 | 0.0 | 1.0 | 0.00 | 0.05 | 0.00 | 90 | 1011.3 |
| 20260905011836 | 76 | 330 | 0.0 | 1.0 | 0.00 | 0.05 | 0.00 | 90 | 1011.3 |
| 20260905011338 | 76 | 330 | 0.0 | 0.0 | 0.00 | 0.05 | 0.00 | 90 | 1011.3 |
| 20260905011058 | 76 | 330 | 0.0 | 0.0 | 0.00 | 0.05 | 0.00 | 90 | 1011.2 |
| 20260905010335 | 76 | 330 | 0.0 | 0.0 | 0.00 | 0.05 | 0.00 | 89 | 1011.2 |
| 20260905005835 | 76 | 330 | 0.0 | 0.0 | 0.00 | 0.05 | 0.00 | 89 | 1011.3 |
| 20260905005336 | 76 | 330 | 0.0 | 0.0 | 0.00 | 0.05 | 0.00 | 89 | 1011.3 |
| 20260905004838 | 76 | 330 | 0.0 | 0.0 | 0.00 | 0.05 | 0.00 | 89 | 1011.3 |
| 20260905004335 | 76 | 330 | 0.0 | 0.0 | 0.00 | 0.05 | 0.00 | 89 | 1011.3 |
| 20260905003836 | 76 | 330 | 0.0 | 0.0 | 0.00 | 0.05 | 0.00 | 89 | 1011.3 |
| 20260905003337 | 76 | 330 | 0.0 | 0.0 | 0.00 | 0.05 | 0.00 | 89 | 1011.3 |
| 20260905003329 | 77 | 330 | 0.0 | 0.0 | 0.00 | 0.05 | 0.00 | 89 | 1011.3 |
| 20260905002334 | 77 | 330 | 0.0 | 1.0 | 0.00 | 0.05 | 0.00 | 88 | 1011.2 |
| 20260905001829 | 77 | 330 | 0.0 | 1.0 | 0.00 | 0.05 | 0.00 | 88 | 1011.0 |
| 20260905001541 | 77 | 330 | 0.0 | 1.0 | 0.00 | 0.05 | 0.00 | 88 | 1010.9 |
| 20260905000817 | 76 | 330 | 0.0 | 0.0 | 0.00 | 0.05 | 0.00 | 87 | 1010.9 |
| 20260905000312 | 76 | 330 | 0.0 | 0.0 | 0.00 | 0.05 | 0.00 | 87 | 1011.1 |
| 20260904235806 | 77 | 330 | 0.0 | 0.0 | 0.00 | 0.05 | 0.00 | 87 | 1011.0 |
| 20260904235542 | 77 | 330 | 0.0 | 0.0 | 0.00 | 0.05 | 0.00 | 87 | 1011.1 |
| 20260904234803 | 77 | 330 | 0.0 | 0.0 | 0.00 | 0.05 | 0.00 | 87 | 1011.2 |
| 20260904234301 | 77 | 330 | 0.0 | 0.0 | 0.00 | 0.05 | 0.00 | 87 | 1011.2 |
| 20260904234031 | 78 | 330 | 0.0 | 0.0 | 0.00 | 0.05 | 0.00 | 87 | 1011.2 |
| 20260904233300 | 78 | 330 | 0.0 | 0.0 | 0.00 | 0.05 | 0.00 | 86 | 1011.0 |
| 20260904233024 | 78 | 330 | 0.0 | 0.0 | 0.00 | 0.05 | 0.00 | 85 | 1011.0 |
| 20260904232257 | 78 | 330 | 0.0 | 0.0 | 0.00 | 0.05 | 0.00 | 84 | 1011.0 |
| 20260904231756 | 79 | 330 | 0.0 | 0.0 | 0.00 | 0.05 | 0.00 | 84 | 1011.0 |
| 20260904231256 | 79 | 330 | 0.0 | 0.0 | 0.00 | 0.05 | 0.00 | 83 | 1011.0 |
| 20260904230755 | 80 | 330 | 0.0 | 0.0 | 0.00 | 0.05 | 0.00 | 81 | 1010.8 |
| 20260904230253 | 80 | 330 | 0.0 | 0.0 | 0.00 | 0.05 | 0.00 | 80 | 1010.9 |
| 20260904225758 | 80 | 330 | 0.0 | 0.0 | 0.00 | 0.05 | 0.00 | 80 | 1010.8 |
| 20260904225255 | 80 | 330 | 0.0 | 0.0 | 0.00 | 0.05 | 0.00 | 80 | 1011.0 |
| 20260904225028 | 81 | 330 | 0.0 | 0.0 | 0.00 | 0.05 | 0.00 | 79 | 1011.2 |
| 20260904224249 | 81 | 330 | 0.0 | 0.0 | 0.00 | 0.05 | 0.00 | 77 | 1011.2 |
| 20260904223749 | 81 | 330 | 0.0 | 0.0 | 0.00 | 0.05 | 0.00 | 76 | 1011.2 |
| 20260904223249 | 82 | 330 | 0.0 | 0.0 | 0.00 | 0.05 | 0.00 | 74 | 1011.2 |
| 20260904222747 | 82 | 330 | 0.0 | 0.0 | 0.00 | 0.05 | 0.00 | 75 | 1011.3 |
| 20260904222245 | 82 | 330 | 0.0 | 0.0 | 0.00 | 0.05 | 0.00 | 74 | 1011.3 |
| 20260904221745 | 83 | 330 | 0.0 | 2.0 | 0.00 | 0.05 | 0.00 | 74 | 1011.3 |
| 20260904221241 | 82 | 330 | 0.0 | 2.0 | 0.00 | 0.05 | 0.00 | 76 | 1011.2 |
| 20260904220742 | 83 | 331 | 0.0 | 4.0 | 0.00 | 0.05 | 0.00 | 74 | 1011.2 |
| 20260904220253 | 83 | 331 | 1.0 | 4.0 | 0.00 | 0.05 | 0.00 | 73 | 1011.2 |
| 20260904215739 | 84 | 196 | 1.0 | 3.0 | 0.00 | 0.05 | 0.00 | 72 | 1011.3 |
| 20260904215239 | 84 | 196 | 1.0 | 4.0 | 0.00 | 0.05 | 0.00 | 72 | 1011.3 |
| 20260904214737 | 83 | 196 | 1.0 | 4.0 | 0.00 | 0.05 | 0.00 | 71 | 1011.5 |
| 20260904214235 | 83 | 192 | 1.0 | 3.0 | 0.00 | 0.05 | 0.00 | 72 | 1011.5 |
| 20260904213734 | 83 | 192 | 1.0 | 3.0 | 0.00 | 0.05 | 0.00 | 71 | 1011.5 |
| 20260904213456 | 84 | 192 | 1.0 | 3.0 | 0.00 | 0.05 | 0.00 | 70 | 1011.6 |
| 20260904212736 | 84 | 192 | 2.0 | 3.0 | 0.00 | 0.05 | 0.00 | 70 | 1011.7 |
| 20260904212234 | 84 | 192 | 2.0 | 4.0 | 0.00 | 0.05 | 0.00 | 70 | 1011.7 |